Overview Statistics Trail Chart Weather Telemetry Raw packets
 

This is the latest recevied weather packets stored in our database for station/object VK6WB. If no packets are shown the sender has not sent any weather packets the latest 10 day(s).

<< 1 2 3 4 5 >>
Time Temp. Humidity Pressure Rain* Wind** Luminosity Snow
1777740005 11.11° C 56% 1020.9 hPa 0 mm - 994 W/m² -
1777739406 11.11° C 58% 1020.9 hPa 0 mm - 994 W/m² -
1777738805 11.11° C 59% 1020.9 hPa 0 mm - 994 W/m² -
1777738205 11.11° C 60% 1021 hPa 0 mm - 994 W/m² -
1777737606 11.11° C 61% 1021.2 hPa 0 mm - 995 W/m² -
1777737005 11.11° C 62% 1021 hPa 0 mm - 943 W/m² -
1777736405 11.11° C 63% 1021 hPa 0 mm - 891 W/m² -
1777735805 11.67° C 63% 1021 hPa 0 mm - 787 W/m² -
1777735205 11.67° C 64% 1021.2 hPa 0 mm - 735 W/m² -
1777734605 11.67° C 65% 1021.3 hPa 0 mm - 684 W/m² -
1777734006 11.67° C 66% 1021.3 hPa 0 mm - 633 W/m² -
1777733405 11.67° C 67% 1021.2 hPa 0 mm - 685 W/m² -
1777732805 11.67° C 67% 1021.1 hPa 0 mm - 737 W/m² -
1777732205 12.22° C 67% 1021.3 hPa 0 mm - 840 W/m² -
1777731605 12.22° C 67% 1021.2 hPa 0 mm - 892 W/m² -
1777731004 12.22° C 67% 1021.3 hPa 0 mm - 840 W/m² -
1777730405 12.22° C 67% 1021.3 hPa 0 mm - 841 W/m² -
1777729805 12.78° C 66% 1021.4 hPa 0 mm - 841 W/m² -
1777729204 12.78° C 67% 1021.3 hPa 0 mm - 841 W/m² -
1777728605 12.78° C 67% 1021.3 hPa 0 mm - 841 W/m² -
1777728005 12.78° C 67% 1021.2 hPa 0 mm - 790 W/m² -
1777727404 12.78° C 68% 1021.3 hPa 0 mm - 790 W/m² -
1777726805 12.78° C 68% 1021.1 hPa 0 mm - 790 W/m² -
1777726205 12.78° C 68% 1021.3 hPa 0 mm - 841 W/m² -
1777725604 12.78° C 67% 1021.1 hPa 0 mm - 893 W/m² -

* Rain latest hour (hover to see other rain measurements)
** Current wind speed in m/s (hover to see current wind gust speed)